This is the latest recevied weather packets stored in our database for station/object IK6IHU-3. If no packets are shown the sender has not sent any weather packets the latest 10 day(s).
| Time | Temp. | Humidity | Pressure | Rain* | Wind** | Luminosity | Snow |
|---|---|---|---|---|---|---|---|
| 1778078426 | 20.56° C | 62% | 1010.8 hPa | 0 mm | - | 0 W/m² | - |
| 1778078366 | 20.56° C | 63% | 1010.7 hPa | 0 mm | - | 0 W/m² | - |
| 1778078306 | 20.56° C | 62% | 1010.9 hPa | 0 mm | - | 0 W/m² | - |
| 1778078186 | 20.56° C | 63% | 1010.6 hPa | 0 mm | - | 0 W/m² | - |
| 1778078126 | 20.56° C | 63% | 1010.7 hPa | 0 mm | - | 0 W/m² | - |
| 1778078066 | 20.56° C | 63% | 1010.6 hPa | 0 mm | - | 0 W/m² | - |
| 1778078006 | 20.56° C | 62% | 1010.3 hPa | 0 mm | - | 0 W/m² | - |
| 1778077526 | 21.11° C | 63% | 1010.7 hPa | 0 mm | - | 0 W/m² | - |
| 1778077165 | 21.11° C | 63% | 1010.8 hPa | 0 mm | - | 0 W/m² | - |
| 1778077105 | 21.11° C | 63% | 1010.6 hPa | 0 mm | - | 0 W/m² | - |
| 1778076865 | 21.11° C | 63% | 1010.7 hPa | 0 mm | - | 0 W/m² | - |
| 1778076805 | 21.11° C | 63% | 1010.3 hPa | 0 mm | - | 0 W/m² | - |
| 1778076746 | 21.11° C | 63% | 1010.7 hPa | 0 mm | - | 0 W/m² | - |
| 1778076626 | 21.67° C | 63% | 1010.5 hPa | 0 mm | - | 0 W/m² | - |
| 1778076506 | 21.11° C | 63% | 1010.7 hPa | 0 mm | - | 0 W/m² | - |
| 1778076266 | 21.11° C | 62% | 1010.6 hPa | 0 mm | - | 0 W/m² | - |
| 1778076206 | 21.11° C | 63% | 1010.6 hPa | 0 mm | - | 0 W/m² | - |
| 1778076026 | 21.67° C | 63% | 1010.8 hPa | 0 mm | - | 0 W/m² | - |
| 1778075846 | 21.67° C | 62% | 1010.8 hPa | 0 mm | - | 0 W/m² | - |
| 1778074765 | 21.67° C | 59% | 1010.9 hPa | 0 mm | - | 0 W/m² | - |
| 1778074586 | 21.67° C | 59% | 1010.8 hPa | 0 mm | - | 0 W/m² | - |
| 1778074525 | 21.67° C | 60% | 1010.7 hPa | 0 mm | - | 0 W/m² | - |
| 1778074465 | 22.22° C | 59% | 1010.9 hPa | 0 mm | - | 0 W/m² | - |
| 1778074285 | 21.67° C | 59% | 1011 hPa | 0 mm | - | 0 W/m² | - |
| 1778074226 | 22.22° C | 60% | 1010.8 hPa | 0 mm | - | 0 W/m² | - |
* Rain latest hour (hover to see other rain measurements)
** Current wind speed in m/s (hover to see current wind gust speed)